Weather History for KFNL - January, 2013

Change the Weather History Date:

Monday, January 14, 2013

  Actual Average Record
Temperature  
Mean Temperature 8 °F -  
Max Temperature 15 °F 40 °F 59 °F (1999)
Min Temperature 0 °F 17 °F -5 °F (1997)
Degree Days  
Heating Degree Days 58    
Moisture  
Dew Point -1 °F    
Average Humidity 74    
Maximum Humidity 92    
Minimum Humidity 53    
Precipitation  
Precipitation 0.00 in - - ()
Sea Level Pressure  
Sea Level Pressure 30.08 in    
Wind  
Wind Speed 3 mph (ENE)    
Max Wind Speed 8 mph    
Max Gust Speed -    
Visibility 10 miles    
Events      
Averages and records for this station are not official NWS values.
T = Trace of Precipitation, MM = Missing Value Source: NWS Daily Summary

Daily Weather History Graph

Daily Weather History Graph

Search for Another Location

Airport or City:

Trip Planner

Search our weather history database for the weather conditions in past years. The results will help you decide how hot, cold, wet, or windy it might be!

Date:

Astronomy

Jan. 14, 2013 Rise Set
Actual Time 7:21 AM MST 4:57 PM MST
Civil Twilight 6:51 AM MST 5:27 PM MST
Nautical Twilight 6:17 AM MST 6:01 PM MST
Astronomical Twilight 5:45 AM MST 6:33 PM MST
Moon 8:55 AM MST (1/14) 8:46 PM MST (1/14)
Length of Visible Light 10h 35m
Length of Day
9h 35m
Waxing Crescent, 12% of the Moon is Illuminated
Jan 14
Waxing Crescent
Jan 18
First Quarter
Jan 26
Full
Feb 3
Last Quarter
Feb 10
New

Hourly Weather History & Observations

Time (MST) Temp. Windchill Dew Point Humidity Pressure Visibility Wind Dir Wind Speed Gust Speed Precip Events Conditions
12:15 AM 1.4 °F - -2.2 °F 85% 30.08 in 10.0 mi Calm Calm - N/A   Clear
12:35 AM 1.4 °F -6.2 °F -2.2 °F 85% 30.08 in 10.0 mi North 3.5 mph - N/A   Clear
12:55 AM 1.4 °F - -0.4 °F 92% 30.08 in 10.0 mi Calm Calm - N/A   Clear
1:15 AM 1.4 °F - -2.2 °F 85% 30.08 in 10.0 mi Calm Calm - N/A   Clear
1:55 AM 1.4 °F -6.2 °F -0.4 °F 92% 30.09 in 10.0 mi North 3.5 mph - N/A   Overcast
2:15 AM 1.4 °F -8.3 °F -0.4 °F 92% 30.09 in 10.0 mi North 4.6 mph - N/A   Overcast
3:15 AM 1.4 °F -11.3 °F -2.2 °F 85% 30.09 in 9.0 mi NNE 6.9 mph - N/A   Overcast
3:35 AM 1.4 °F -9.9 °F -2.2 °F 85% 30.09 in 10.0 mi NNE 5.8 mph - N/A   Partly Cloudy
3:55 AM -0.4 °F -10.4 °F -4.0 °F 85% 30.09 in 10.0 mi NNE 4.6 mph - N/A   Mostly Cloudy
4:15 AM 1.4 °F -8.3 °F -0.4 °F 92% 30.09 in 10.0 mi NNE 4.6 mph - N/A   Overcast
4:35 AM 1.4 °F -8.3 °F -2.2 °F 85% 30.09 in 10.0 mi North 4.6 mph - N/A   Overcast
4:55 AM 1.4 °F -8.3 °F -2.2 °F 85% 30.09 in 6.0 mi North 4.6 mph - N/A   Overcast
5:15 AM 1.4 °F -8.3 °F -2.2 °F 85% 30.10 in 8.0 mi North 4.6 mph - N/A   Overcast
5:35 AM 1.4 °F -6.2 °F -2.2 °F 85% 30.10 in 10.0 mi North 3.5 mph - N/A   Overcast
5:55 AM 1.4 °F -6.2 °F -2.2 °F 85% 30.10 in 10.0 mi North 3.5 mph - N/A   Overcast
6:35 AM 1.4 °F - -4.0 °F 78% 30.11 in 10.0 mi Calm Calm - N/A   Overcast
6:55 AM 1.4 °F -11.3 °F -0.4 °F 92% 30.13 in 10.0 mi NNE 6.9 mph - N/A   Overcast
7:15 AM -0.4 °F -10.4 °F -5.8 °F 78% 30.13 in 10.0 mi NNE 4.6 mph - N/A   Scattered Clouds
7:55 AM 1.4 °F -8.3 °F -4.0 °F 78% 30.14 in 10.0 mi North 4.6 mph - N/A   Mostly Cloudy
8:15 AM 1.4 °F -8.3 °F -4.0 °F 78% 30.14 in 10.0 mi North 4.6 mph - N/A   Overcast
8:35 AM 1.4 °F -9.9 °F -4.0 °F 78% 30.14 in 10.0 mi North 5.8 mph - N/A   Overcast
8:55 AM 1.4 °F -6.2 °F -2.2 °F 85% 30.14 in 10.0 mi North 3.5 mph - N/A   Overcast
9:15 AM 3.2 °F - -2.2 °F 78% 30.14 in 10.0 mi Calm Calm - N/A   Mostly Cloudy
10:55 AM 10.4 °F 4.0 °F -2.2 °F 57% 30.10 in 10.0 mi NNE 3.5 mph - N/A   Clear
11:15 AM 10.4 °F 4.0 °F -0.4 °F 62% 30.09 in 10.0 mi North 3.5 mph - N/A   Clear
11:35 AM 12.2 °F - -0.4 °F 57% 30.08 in 10.0 mi Calm Calm - N/A   Clear
11:55 AM 14.0 °F - -0.4 °F 53% 30.07 in 10.0 mi Calm Calm - N/A   Clear
12:15 PM 12.2 °F - 1.4 °F 62% 30.06 in 10.0 mi Calm Calm - N/A   Clear
12:35 PM 14.0 °F 8.2 °F 1.4 °F 57% 30.05 in 10.0 mi East 3.5 mph - N/A   Clear
12:55 PM 14.0 °F - -0.4 °F 53% 30.03 in 10.0 mi Calm Calm - N/A   Clear
1:15 PM 12.2 °F - -0.4 °F 57% 30.03 in 10.0 mi Calm Calm - N/A   Clear
1:35 PM 14.0 °F 8.2 °F 1.4 °F 57% 30.03 in 10.0 mi East 3.5 mph - N/A   Clear
1:55 PM 15.8 °F 10.2 °F 1.4 °F 53% 30.03 in 10.0 mi ESE 3.5 mph - N/A   Clear
2:15 PM 15.8 °F 10.2 °F 3.2 °F 58% 30.03 in 10.0 mi East 3.5 mph - N/A   Clear
2:35 PM 15.8 °F 10.2 °F 1.4 °F 53% 30.04 in 10.0 mi SE 3.5 mph - N/A   Clear
2:55 PM 15.8 °F 8.6 °F 1.4 °F 53% 30.05 in 10.0 mi East 4.6 mph - N/A   Clear
3:15 PM 15.8 °F 7.2 °F 1.4 °F 53% 30.06 in 10.0 mi SSE 5.8 mph - N/A   Clear
3:35 PM 15.8 °F 8.6 °F 1.4 °F 53% 30.06 in 10.0 mi SE 4.6 mph - N/A   Clear
3:55 PM 15.8 °F 5.1 °F 1.4 °F 53% 30.07 in 10.0 mi ESE 8.1 mph - N/A   Clear
4:15 PM 15.8 °F 6.1 °F 1.4 °F 53% 30.07 in 10.0 mi SE 6.9 mph - N/A   Clear
4:35 PM 14.0 °F 2.9 °F 1.4 °F 57% 30.07 in 10.0 mi SE 8.1 mph - N/A   Clear
4:55 PM 12.2 °F 1.7 °F 1.4 °F 62% 30.08 in 10.0 mi SE 6.9 mph - N/A   Clear
5:15 PM 10.4 °F -1.5 °F -0.4 °F 62% 30.08 in 10.0 mi SE 8.1 mph - N/A   Clear
5:35 PM 8.6 °F -2.6 °F -0.4 °F 67% 30.09 in 10.0 mi SSE 6.9 mph - N/A   Clear
5:55 PM 8.6 °F -2.6 °F 1.4 °F 73% 30.09 in 10.0 mi SE 6.9 mph - N/A   Clear
6:15 PM 8.6 °F 0.1 °F 1.4 °F 73% 30.10 in 10.0 mi SE 4.6 mph - N/A   Clear
6:35 PM 6.8 °F -3.5 °F 1.4 °F 79% 30.10 in 10.0 mi SE 5.8 mph - N/A   Clear
6:55 PM 6.8 °F -3.5 °F 1.4 °F 79% 30.09 in 10.0 mi SSE 5.8 mph - N/A   Clear
7:15 PM 6.8 °F -3.5 °F 1.4 °F 79% 30.09 in 10.0 mi SE 5.8 mph - N/A   Clear
7:55 PM 3.2 °F - -2.2 °F 78% 30.08 in 10.0 mi Calm Calm - N/A   Clear
8:35 PM 6.8 °F -0.1 °F 3.2 °F 85% 30.07 in 10.0 mi South 3.5 mph - N/A   Clear
8:55 PM 6.8 °F -0.1 °F 1.4 °F 79% 30.07 in 10.0 mi South 3.5 mph - N/A   Clear
9:15 PM 5.0 °F -2.1 °F 1.4 °F 85% 30.06 in 10.0 mi South 3.5 mph - N/A   Clear
9:35 PM 5.0 °F -4.1 °F 1.4 °F 85% 30.06 in 10.0 mi SSE 4.6 mph - N/A   Clear
9:55 PM 3.2 °F - -0.4 °F 85% 30.06 in 10.0 mi Calm Calm - N/A   Clear
10:15 PM 1.4 °F -9.9 °F -5.8 °F 72% 30.06 in 10.0 mi NNE 5.8 mph - N/A   Clear
10:35 PM 1.4 °F -11.3 °F -0.4 °F 92% 30.07 in 10.0 mi North 6.9 mph - N/A   Clear
10:55 PM 1.4 °F -9.9 °F -0.4 °F 92% 30.06 in 10.0 mi North 5.8 mph - N/A   Clear
11:15 PM -0.4 °F -13.4 °F -4.0 °F 85% 30.06 in 10.0 mi North 6.9 mph - N/A   Clear
11:35 PM 1.4 °F -11.3 °F -2.2 °F 85% 30.06 in 10.0 mi North 6.9 mph - N/A   Clear
11:55 PM 1.4 °F -12.5 °F -2.2 °F 85% 30.06 in 10.0 mi NNE 8.1 mph - N/A   Clear